{"data":{"norad_id":47380,"intl_designator":"2021-005AH","name":"STARLINK-2100","alt_names":[],"object_type":"PAYLOAD","status":"ACTIVE","operator":null,"country":"US","launch_date":"2021-01-20","launch_site_code":"AFETR","launch_vehicle":null,"mission":null,"orbit_class":"UNKNOWN","rcs_meters":null,"size_class":null,"mass_kg":null,"dimensions":null,"purposes":["comms"],"wikipedia_slug":null,"has_3d_model":false,"image_url":null,"decayed_at":null,"tle_current":{"epoch":"2026-08-08T20:02:45.632832Z","epoch_age_seconds":3712081,"freshness":"OLD","line1":"1 47380U 21005AH  26220.83525038  .07575250  12474-4  45330-3 0  9997","line2":"2 47380  53.0300   0.1212 0011173 297.5122  62.4789 16.41181916307354","mean_motion":16.41181916,"eccentricity":0.0011173,"inclination_deg":53.03,"raan_deg":0.1212,"arg_perigee_deg":297.5122,"mean_anomaly_deg":62.4789,"bstar":0.0004533,"rev_number":30735,"period_min":87.741644357724,"perigee_km":155.35230070058,"apogee_km":169.96836642216,"semimajor_km":6540.7973335614,"source":"CELESTRAK","updated_at":"2026-08-09T09:00:58.964916Z"}}}